Location: Kennington
(51.1500°N, 0.8833°E)
Time: 11:06:38
(UTC+00:00)

Cosmos 1515 Rocket - Pass Details

Date: 21 September 2020
Orbit: 605 x 631 km, 82.5° (Epoch: 31 October)

Event Time Altitude Azimuth Distance (km) Brightness Sun altitude
Exits shadow 03:50:05 36° 254° (WSW) 1,000 4.1 -17.8°
Maximum altitude 03:51:03 42° 287° (WNW) 910 4.0 -17.6°
Drops below altitude 10° 03:55:18 10° 358° (N) 2,013 6.5 -17.0°
Sets 03:57:39 0° 6° (N) 2,920 7.4 -16.7°
